Location: K�ln
(50.9455°N, 6.9544°E)
Time: 17:12:34
(UTC+01:00)

ISS - Pass Details

Date: 13 November 2017
Orbit: 402 x 407 km, 51.6° (Epoch: 20 November)

Event Time Altitude Azimuth Distance (km) Brightness Sun altitude
Exits shadow 06:35:23 16° 265° (W) 1,139 -2.1 -11.0°
Maximum altitude 06:37:24 31° 211° (SSW) 735 -2.7 -10.7°
Drops below altitude 10° 06:40:20 10° 147° (SSE) 1,451 -0.2 -10.2°
Sets 06:42:32 0° 136° (SE) 2,307 1.2 -9.9°
